Miscellaneous Local Product
Issued by NWS North Platte, NE

Home | Current Version | Previous Version | Text Only | Print | Product List | Glossary On
Versions: 1 2 3 4 5 6 7 8 9 10 11 12 13 14 15 16 17 18 19 20 21 22 23 24 25 26 27 28 29 30 31 32 33 34 35 36 37 38 39 40 41 42 43 44 45 46 47 48 49 50
000
AXUS43 KLBF 150510
MISLBF


WESTERN AND NORTH CENTRAL NEBRASKA HOURLY WEATHER ROUNDUP
NATIONAL WEATHER SERVICE NORTH PLATTE NE
1200 AM CDT MON SEP 15 2014

***STATIONS NOT REPORTING VARIABLES SUCH AS SKY/WEATHER OR
PRESSURE ARE PROVIDED BY THE NEBRASKA DEPARTMENT OF
ROADS...RAWS...AND APRS NETWORKS...AND ARE NOT UNDER
NATIONAL WEATHER SERVICE QUALITY CONTROL***

...OBSERVATIONS IN AND NEAR THE EASTERN PANHANDLE OF NEBRASKA...

CITY           SKY/WX    TMP DP  RH WIND       PRES   REMARKS
PINE RIDGE     CLEAR     39  37  92 E3        30.20R
CHADRON        CLEAR     42  39  89 NE3       30.20R
ALLIANCE       CLOUDY    50  43  77 N12       30.15R
SIDNEY         CLEAR     55  49  80 N12       30.11R
WHITECLAY        N/A     39  35  87 N6          N/A  WCI  35
RUSHVILLE        N/A     40  38  92 N13         N/A  WCI  33
CRESCENT LAKE    N/A     51  46  83 N9          N/A
LISCO            N/A     56  46  69 N24         N/A
BIG SPRINGS      N/A     59  56  91 CALM        N/A
$$

...OBSERVATIONS IN NORTH CENTRAL NEBRASKA...

CITY           SKY/WX    TMP DP  RH WIND       PRES   REMARKS
VALENTINE      CLOUDY    50  41  71 NE13      30.15R
THEDFORD       CLOUDY    56  52  86 NE7       30.09S
AINSWORTH      CLOUDY    50  44  79 NE7       30.12R
O`NEILL        CLOUDY    54  49  83 NE10      30.10R
ORD            MOCLDY    60  53  77 E3        30.05R
BROKEN BOW     MOCLDY    59  53  80 SE7       30.06R
SPRINGVIEW       N/A     51  43  75 N3          N/A
ROSE             N/A     55  54  97 N8          N/A
NEWPORT          N/A     48  44  88 NE7         N/A
COMSTOCK         N/A     63  58  83 E6          N/A
CHAMBERS         N/A     55  51  87 N3          N/A
$$

...OBSERVATIONS IN SOUTHWEST NEBRASKA AND FAR NORTHEAST COLORADO...

CITY           SKY/WX    TMP DP  RH WIND       PRES   REMARKS
WRAY           FAIR      67  55  66 SE9       29.98F
HOLYOKE        FAIR      61  57  88 NE8       30.05R
IMPERIAL       MOCLDY    59  55  87 NE8       30.03R
OGALLALA       PTCLDY    59  57  92 E5        30.05R
NORTH PLATTE   PTCLDY    56  53  90 E9        30.04S
MCCOOK         MOCLDY    60  55  83 E16       30.02R
LEXINGTON      PTCLDY    59  53  79 E12G17    30.04S
PAXTON           N/A     60  56  87 CALM        N/A
SUTHERLAND       N/A     53  50  90 E3          N/A
BRADY            N/A     56  51  85 N3          N/A
GOTHENBURG       N/A     57  51  79 E3          N/A
CALLAWAY         N/A     58  54  87 E8          N/A
$$

...SOME WEATHER OBSERVATIONS FROM AROUND THE REGION...

CITY           SKY/WX    TMP DP  RH WIND       PRES   REMARKS
DENVER         CLOUDY    63  43  48 S12       30.12S
LARAMIE        CLEAR     53  33  46 CALM      30.22R
CHEYENNE       PTCLDY    49  44  83 N8        30.22R
SCOTTSBLUFF    PTCLDY    50  44  80 N9        30.16R
RAPID CITY     MOCLDY    43  39  86 NW3       30.23R
PIERRE         CLOUDY    52  37  56 N8        30.18R
WINNER         CLOUDY    52  42  69 N6        30.16R
SIOUX FALLS    CLOUDY    50  47  89 E6        30.14F
OMAHA          CLOUDY    64  53  67 E3        30.09S
GRAND ISLAND   MOCLDY    62  54  74 E10       30.04F
KANSAS CITY    MOCLDY    65  57  75 S12       30.08R
WICHITA        PTCLDY    69  60  73 S17       30.04F
HAYS           CLEAR     70  59  68 S10       29.96R
LIBERAL        PTCLDY    66  57  72 S10       30.07S
GOODLAND       MOCLDY    61  56  83 E3        30.04R
$$



USA.gov is the U.S. government's official web portal to all federal, state and local government web resources and services.